Погода в Борованах

Чехия     48°53′58″N   14°38′32″E
темп.,
°C
ветер,
м/с
пор.,
м/с
влажн.,
%
обл.,
%
осадки,
мм/ч
давл.,
гПа
погр.,
м
14 апреля, ср
ср1423:00+1сз3882100 0.1 1028318
02:000сз41085100 0.2 1027443
05:000сз41085100 0.1 1027488
08:00+1сз4980100 0.3 1028658
11:00+4ссз5763100 0.4 10271434
14:00+6с5739100 0.4 10262069
17:00+6с5736100 0.0 10242159
20:00+2с3758100 0.0 1025196
15 апреля, чт
чт1523:000зсз2268100 0.0 102633
02:00−1зсз2372100 0.0 102677
05:00−1зсз2474100 0.0 1026100
08:00+1сз356593 0.0 1026341
11:00+4ссз4655100 0.2 10251681
14:00+6ссз5637100 0.4 10242218
17:00+5с5749100 0.0 10241496
20:00+2с3775100 0.0 1025525
16 апреля, пт
пт1623:000зсз2687100 0.0 1025267
02:00−1зсз3792100 0.0 1025275
05:00−1зсз379489 0.0 1024379
08:000сз468068 0.0 1024535
11:00+4сз3465100 0.0 10241058
14:00+6сз3361100 0.1 10231218
17:00+5с3369100 0.0 1022857
20:00+3с359299 0.0 1024326
17 апреля, сб
сб1723:00+2с1399100 0.1 1024261
02:00+1с2293100 0.1 1023358
05:00+1ссз1394100 0.1 1023189
08:00+2ссз2394100 0.1 1023286
11:00+4с2382100 0.1 1022733
14:00+4ссв3486100 0.1 1022556
17:00+4с3696100 0.2 1021659
20:00+3ссз2898100 0.8 1021681
18 апреля, вс
вс1823:00+4ссз2699100 0.6 1022411
02:00+4ссз2599100 0.6 1021307
05:00+4ссз269998 0.1 1020334
08:00+5ссз2697100 0.1 1020380
11:00+7с3485100 0.2 1020754
14:00+9с3474100 0.8 10191040
17:00+8с3582100 0.8 1019616
20:00+6с2493100 1.5 1020122